User: anonymous   Login
Location: Caltech
(34.1382°N, 118.1253°W)
Time: 14:50:58
(UTC-08:00)
Language:

Iridium 65 - Orbit

View from above orbital plane
View from above orbital plane
View from above satellite
View from above satellite

Ground track
Ground track

The orbit data is extracted from the following two-line orbital elements,

1 25288U 98021D   17324.51409856 -.00000021  00000-0 -14595-4 0  9993
2 25288  86.3960 158.5527 0001862  88.4419 271.6990 14.34220297 27426
Epoch (UTC): 20 November 2017 12:20:18
Eccentricity: 0.0001862
inclination: 86.3960°
perigee height: 776 km
apogee height: 779 km
right ascension of ascending node: 158.5527°
argument of perigee: 88.4419°
revolutions per day: 14.34220297
mean anomaly at epoch: 271.6990°
orbit number at epoch: 2742

The dashed part of the orbit path shows where the satellite is in the earth's shadow,  

DLR